[[{"header":{"parameterUnit":"m.s-1","parameterCategory":1,"la1":30.2991,"la2":30.254,"lo1":-89.0895,"lo2":-89.0444,"dy":0.0017,"dx":0.0017,"nx":28,"ny":28,"refTime":"2025-12-29T03:00:00:Z","depth":0,"parameterNumber":2,"parameterNumberName":"U-component_of_WINDS"},"data":[0,0,0,0,0,0,0,0,0,0,0,0,0,0,0,0,0,0,0,0,0,0,0,0,0,0,0,0,0,0,0,0,0,0,0,0,0,0,0,0,0,0,0,0,0,0,0,0,0,0,0,0,0,0,0,0,0,0,1.5065,1.5065,0,1.506,1.506,1.5059,1.5056,1.5056,1.5056,1.5056,1.5048,1.5048,1.5048,0,0,0,0,0,0,0,0,0,0,0,0,0,1.507,1.5069,1.5065,1.5065,1.5064,1.506,1.506,1.5059,1.5056,1.5056,1.5056,1.5056,1.5048,1.5048,1.5048,0,0,0,0,0,0,0,0,0,0,0,0,0,1.5066,1.5069,1.5065,1.5062,1.5062,1.506,1.506,1.5059,1.5056,1.5056,1.5056,1.5056,1.5048,1.5048,1.5048,1.5047,0,0,1.5047,1.5047,0,0,0,0,0,0,0,0,1.5066,1.5066,1.5063,1.5062,1.5062,1.5058,1.5058,1.5055,1.5056,1.5058,1.5056,1.5056,1.5051,1.5051,1.505,1.5046,1.5046,1.5047,1.5047,1.5046,1.5046,0,0,0,0,0,0,0,1.5067,1.5066,1.5063,1.5062,1.5062,1.5061,1.506,1.5058,1.5055,1.5058,1.5057,1.5057,1.5051,1.505,1.505,1.5046,1.5047,1.5046,1.5046,1.5046,1.5043,1.5043,0,0,0,0,0,0,1.5067,1.5066,1.5063,1.5062,1.5064,1.5061,1.506,1.5059,1.5055,1.5054,1.5057,1.5057,1.5051,1.505,1.5049,1.5048,1.5046,1.5046,1.5046,1.5042,1.5043,1.5043,0,0,0,0,0,0,1.5068,1.5067,1.5063,1.5064,1.5064,1.5061,1.506,1.5059,1.5058,1.5054,1.5054,1.5057,1.505,1.505,1.5048,1.5048,1.5046,1.5046,1.5042,1.5043,1.5043,1.5047,0,0,0,0,0,0,1.5068,1.5067,1.5067,1.5064,1.5064,1.5062,1.506,1.5059,1.5058,1.5058,1.5054,1.5053,1.505,1.5048,1.5048,1.5048,1.5046,1.5042,1.5042,1.5043,1.5046,1.5047,1.5047,0,0,0,0,0,1.5068,1.5068,1.5067,1.5067,1.5064,1.5062,1.5061,1.5059,1.5058,1.5058,1.5056,1.5053,1.5049,1.5048,1.5047,1.5047,1.5042,1.5042,1.5043,1.5046,1.5047,1.5047,0,0,0,0,0,0,1.5069,1.5067,1.5067,1.5065,1.5064,1.5061,1.5061,1.5059,1.5057,1.5057,1.5054,1.5053,1.5051,1.5049,1.5049,1.5047,1.5045,1.5045,1.5048,1.5049,1.5049,1.5049,1.5045,0,0,0,0,0,1.507,1.5069,1.5067,1.5066,1.5066,1.5064,1.5063,1.5061,1.5059,1.5058,1.5056,1.5053,1.5051,1.505,1.5048,1.5046,1.5045,1.5046,1.5047,1.5047,1.5047,1.5046,1.5047,1.5043,1.5043,1.5043,0,0,1.507,1.5069,1.5068,1.5067,1.5065,1.5064,1.5063,1.5062,1.5061,1.5058,1.5056,1.5054,1.5051,1.505,1.5049,1.5048,1.5048,1.5047,1.5047,1.5047,1.5047,1.5047,1.5047,1.5043,1.5043,1.5043,0,0,1.507,1.5069,1.5069,1.5068,1.5066,1.5065,1.5065,1.5063,1.5062,1.5061,1.5059,1.5058,1.5054,1.5052,1.5051,1.5052,1.505,1.5052,1.5053,1.5053,1.5053,1.5054,1.5054,1.5054,1.5052,1.5052,1.5052,0,1.507,1.5069,1.5068,1.5068,1.5067,1.5066,1.5065,1.5064,1.5062,1.5061,1.5061,1.5057,1.5055,1.5054,1.5054,1.5053,1.5053,1.5052,1.5054,1.5054,1.5054,1.5054,1.5055,1.5052,1.5052,1.5052,1.5052,0,1.507,1.5069,1.5069,1.5068,1.5068,1.5067,1.5066,1.5065,1.5065,1.5063,1.5062,1.506,1.5058,1.5058,1.5056,1.5056,1.5056,1.5054,1.5052,1.5055,1.5055,1.5055,1.5052,1.5052,1.5052,1.5052,0,0,1.5068,1.5069,1.5068,1.5068,1.5068,1.5067,1.5067,1.5066,1.5066,1.5064,1.5064,1.5062,1.5061,1.506,1.5058,1.5058,1.506,1.5057,1.5057,1.5057,1.506,1.5061,1.5061,1.5059,1.5059,1.5059,1.506,0,1.5068,1.5068,1.5068,1.5068,1.5068,1.5067,1.5067,1.5066,1.5066,1.5065,1.5064,1.5063,1.5062,1.5061,1.5061,1.506,1.506,1.506,1.5058,1.5058,1.5058,1.5061,1.5061,1.5063,1.506,1.506,1.506,0,1.5067,1.5068,1.5068,1.5068,1.5068,1.5068,1.5067,1.5067,1.5067,1.5066,1.5066,1.5064,1.5064,1.5063,1.5062,1.5062,1.5062,1.5061,1.5061,1.506,1.5059,1.506,1.5063,1.5063,1.5061,1.5061,1.5061,0,1.5066,1.5067,1.5067,1.5067,1.5068,1.5068,1.5068,1.5067,1.5067,1.5067,1.5067,1.5066,1.5065,1.5065,1.5064,1.5063,1.5063,1.5062,1.5062,1.5062,1.5061,1.5061,1.5064,1.5062,1.5062,1.5062,1.5062,0,1.5066,1.5066,1.5067,1.5067,1.5067,1.5068,1.5068,1.5068,1.5068,1.5067,1.5067,1.5067,1.5066,1.5065,1.5064,1.5064,1.5064,1.5063,1.5063,1.5063,1.5063,1.5062,1.5062,1.5062,1.5062,1.5062,1.5062,0,1.5064,1.5065,1.5066,1.5067,1.5067,1.5067,1.5068,1.5068,1.5068,1.5068,1.5068,1.5068,1.5067,1.5067,1.5066,1.5065,1.5065,1.5065,1.5065,1.5065,1.5066,1.5065,1.5067,1.5067,1.5066,1.5066,1.5066,0,1.5063,1.5064,1.5065,1.5066,1.5066,1.5067,1.5067,1.5068,1.5068,1.5068,1.5068,1.5068,1.5068,1.5068,1.5067,1.5067,1.5066,1.5067,1.5066,1.5067,1.5066,1.5066,1.5066,1.5067,1.5067,1.5067,1.5067,0,1.5062,1.5063,1.5063,1.5065,1.5065,1.5066,1.5067,1.5067,1.5068,1.5068,1.5069,1.5069,1.5069,1.5069,1.5069,1.5068,1.5068,1.5068,1.5068,1.5067,1.5068,1.5067,1.5066,1.5067,1.5067,1.5067,1.5067,1.5067,1.506,1.5061,1.5062,1.5063,1.5064,1.5066,1.5066,1.5067,1.5067,1.5068,1.5069,1.5069,1.507,1.507,1.507,1.507,1.5069,1.5069,1.5069,1.5069,1.5069,1.5068,1.507,1.507,1.507,1.507,1.507,0,1.5058,1.506,1.5061,1.5063,1.5064,1.5065,1.5066,1.5066,1.5067,1.5068,1.5069,1.507,1.507,1.507,1.5071,1.5071,1.5071,1.5071,1.507,1.507,1.5069,1.5069,1.5071,1.5071,1.5071,1.5071,1.5071,1.5071,1.5057,1.5058,1.506,1.5062,1.5063,1.5064,1.5065,1.5066,1.5067,1.5068,1.5069,1.507,1.507,1.5071,1.5072,1.5072,1.5072,1.5072,1.5072,1.5071,1.507,1.507,1.507,1.5072,1.5072,1.5073,1.5073,1.5073]},{"header":{"parameterUnit":"m.s-1","parameterCategory":1,"la1":30.2991,"la2":30.254,"lo1":-89.0895,"lo2":-89.0444,"dy":0.0017,"dx":0.0017,"nx":28,"ny":28,"refTime":"2025-12-29T03:00:00:Z","depth":0,"parameterNumber":3,"parameterNumberName":"V-component_of_WINDS"},"data":[0,0,0,0,0,0,0,0,0,0,0,0,0,0,0,0,0,0,0,0,0,0,0,0,0,0,0,0,0,0,0,0,0,0,0,0,0,0,0,0,0,0,0,0,0,0,0,0,0,0,0,0,0,0,0,0,0,0,-8.5842,-8.5844,0,-8.6029,-8.6031,-8.6033,-8.5937,-8.5932,-8.5927,-8.5923,-8.6108,-8.6117,-8.6127,0,0,0,0,0,0,0,0,0,0,0,0,0,-8.5396,-8.5405,-8.5842,-8.5844,-8.5846,-8.6028,-8.6031,-8.6034,-8.5938,-8.5932,-8.5926,-8.592,-8.6105,-8.6116,-8.6127,0,0,0,0,0,0,0,0,0,0,0,0,0,-8.5587,-8.5408,-8.5841,-8.5821,-8.5821,-8.6028,-8.6031,-8.6034,-8.5939,-8.5932,-8.5924,-8.5918,-8.6101,-8.6115,-8.6129,-8.6365,0,0,-8.6173,-8.6179,0,0,0,0,0,0,0,0,-8.5576,-8.5603,-8.5821,-8.5823,-8.5823,-8.5952,-8.5942,-8.6145,-8.5941,-8.5894,-8.5923,-8.5914,-8.6062,-8.6079,-8.613,-8.6374,-8.6382,-8.6174,-8.6183,-8.6189,-8.6193,0,0,0,0,0,0,0,-8.5563,-8.5595,-8.5915,-8.5825,-8.5826,-8.58,-8.5819,-8.598,-8.6017,-8.5898,-8.5891,-8.5915,-8.606,-8.6116,-8.6133,-8.6384,-8.6173,-8.6186,-8.6195,-8.6201,-8.6831,-8.6839,0,0,0,0,0,0,-8.5552,-8.5584,-8.5909,-8.5921,-8.5679,-8.5814,-8.5836,-8.5918,-8.6015,-8.6023,-8.5921,-8.591,-8.6095,-8.6117,-8.614,-8.6423,-8.6189,-8.6202,-8.621,-8.6823,-8.6833,-8.6842,0,0,0,0,0,0,-8.5543,-8.5582,-8.5902,-8.5751,-8.579,-8.583,-8.5923,-8.5926,-8.5981,-8.6033,-8.6038,-8.5972,-8.609,-8.6119,-8.631,-8.6428,-8.6208,-8.6221,-8.6814,-8.6826,-8.6838,-8.6991,0,0,0,0,0,0,-8.553,-8.5579,-8.567,-8.5754,-8.5799,-8.6072,-8.5931,-8.5935,-8.6007,-8.5994,-8.6082,-8.6089,-8.6087,-8.629,-8.6325,-8.6444,-8.6233,-8.6803,-8.6819,-8.6834,-8.6976,-8.7007,-8.7034,0,0,0,0,0,-8.5515,-8.5705,-8.5676,-8.5715,-8.5914,-8.6079,-8.6104,-8.61,-8.6017,-8.6108,-8.6141,-8.6086,-8.6409,-8.631,-8.6348,-8.6474,-8.6796,-8.6815,-8.6833,-8.6963,-8.7001,-8.7034,0,0,0,0,0,0,-8.5631,-8.5715,-8.5684,-8.5907,-8.5987,-8.6062,-8.6178,-8.614,-8.6244,-8.6227,-8.6215,-8.6236,-8.6434,-8.6472,-8.636,-8.6707,-8.6589,-8.6616,-8.6675,-8.6712,-8.6741,-8.6727,-8.6244,0,0,0,0,0,-8.5684,-8.5813,-8.5878,-8.6068,-8.611,-8.6138,-8.6209,-8.6199,-8.628,-8.6313,-8.636,-8.6439,-8.6558,-8.6637,-8.675,-8.6981,-8.6998,-8.7086,-8.7115,-8.7139,-8.7162,-8.7287,-8.7327,-8.6903,-8.6902,-8.6902,0,0,-8.5792,-8.5854,-8.5935,-8.6094,-8.6154,-8.6286,-8.6166,-8.6311,-8.6408,-8.6334,-8.6518,-8.6555,-8.6643,-8.6855,-8.6951,-8.6893,-8.7283,-8.7162,-8.7181,-8.7192,-8.7311,-8.7351,-8.7386,-8.6915,-8.6913,-8.6911,0,0,-8.6057,-8.6117,-8.6283,-8.6347,-8.6441,-8.6458,-8.6498,-8.658,-8.6603,-8.6788,-8.6735,-8.6849,-8.7055,-8.712,-8.718,-8.7471,-8.7424,-8.7507,-8.766,-8.7782,-8.7816,-8.7845,-8.7949,-8.7987,-8.7531,-8.7531,-8.7531,0,-8.6179,-8.6379,-8.6372,-8.6522,-8.6593,-8.6534,-8.6701,-8.6763,-8.6888,-8.6938,-8.6872,-8.713,-8.7184,-8.7411,-8.7483,-8.7533,-8.7577,-8.7498,-8.7812,-8.7841,-8.7869,-8.7968,-8.8007,-8.7541,-8.7539,-8.7538,-8.7538,0,-8.6524,-8.6663,-8.6785,-8.6911,-8.6995,-8.7153,-8.7169,-8.7255,-8.7238,-8.7261,-8.745,-8.7514,-8.7639,-8.7691,-8.7675,-8.7917,-8.7878,-8.7813,-8.7694,-8.7919,-8.8012,-8.805,-8.7554,-8.7551,-8.7548,-8.7546,0,0,-8.6868,-8.699,-8.7035,-8.7091,-8.7191,-8.7298,-8.7452,-8.7576,-8.765,-8.7739,-8.7867,-8.8044,-8.7984,-8.8052,-8.8042,-8.815,-8.8377,-8.807,-8.8072,-8.8126,-8.8647,-8.8696,-8.874,-8.8346,-8.8353,-8.8359,-8.8639,0,-8.7141,-8.7414,-8.7413,-8.7665,-8.7793,-8.7739,-8.7873,-8.7948,-8.7974,-8.8085,-8.8112,-8.8238,-8.8149,-8.819,-8.8294,-8.8327,-8.8481,-8.8307,-8.8464,-8.847,-8.8445,-8.8789,-8.8841,-8.9103,-8.8676,-8.8682,-8.8686,0,-8.7496,-8.7599,-8.7864,-8.7946,-8.8,-8.8121,-8.8235,-8.8343,-8.8426,-8.8437,-8.8514,-8.8488,-8.8643,-8.852,-8.8734,-8.8615,-8.8679,-8.8705,-8.8715,-8.873,-8.8592,-8.8813,-8.9187,-8.9226,-8.8743,-8.8739,-8.8735,0,-8.7721,-8.7925,-8.8111,-8.8161,-8.8261,-8.8348,-8.8393,-8.847,-8.8545,-8.8644,-8.8692,-8.8807,-8.887,-8.8959,-8.8964,-8.8874,-8.9179,-8.9056,-8.9192,-8.9192,-8.9259,-8.9255,-8.9649,-8.93,-8.93,-8.9299,-8.9298,0,-8.8026,-8.819,-8.8214,-8.8328,-8.851,-8.8507,-8.8686,-8.8724,-8.8792,-8.8911,-8.887,-8.8982,-8.8982,-8.9096,-8.91,-8.9277,-8.9305,-8.9317,-8.9317,-8.9322,-8.932,-8.9364,-8.9346,-8.9309,-8.9307,-8.9305,-8.9303,0,-8.8308,-8.8331,-8.853,-8.8609,-8.8633,-8.8764,-8.8831,-8.8939,-8.8961,-8.9112,-8.9147,-8.9182,-8.9314,-8.9328,-8.9481,-8.9483,-8.9697,-8.9676,-8.967,-8.9666,-8.9802,-8.9789,-9.0238,-9.0296,-8.9909,-8.9912,-8.9915,0,-8.8502,-8.8628,-8.8722,-8.88,-8.8851,-8.8977,-8.9054,-8.9055,-8.9137,-8.9242,-8.9337,-8.9465,-8.9568,-8.9781,-8.9819,-8.9935,-8.9917,-9.0066,-8.9934,-8.9936,-8.992,-8.9913,-8.9926,-9.0092,-9.0096,-9.01,-9.0103,0,-8.8843,-8.8849,-8.8963,-8.9082,-8.9176,-8.9269,-8.9356,-8.9421,-8.9433,-8.9526,-8.9662,-8.9742,-8.99,-9.0027,-9.0142,-9.0186,-9.0147,-9.0144,-9.0182,-9.0188,-9.018,-9.0187,-8.974,-9.0134,-9.0131,-9.0128,-9.0127,-9.0125,-8.9088,-8.9197,-8.9281,-8.941,-8.9476,-8.9559,-8.9664,-8.9701,-8.9815,-8.9945,-8.9938,-9.0088,-9.0167,-9.0318,-9.0371,-9.0487,-9.0437,-9.0491,-9.0505,-9.0519,-9.0533,-9.0162,-9.0507,-9.0506,-9.0506,-9.0505,-9.0504,0,-8.9428,-8.9479,-8.9598,-8.9722,-8.9823,-8.978,-8.9874,-8.9961,-9.0094,-9.0173,-9.0276,-9.0432,-9.0556,-9.0604,-9.0724,-9.0808,-9.0793,-9.0839,-9.0833,-9.0844,-9.057,-9.0526,-9.085,-9.085,-9.085,-9.085,-9.0849,-9.0849,-8.9617,-8.98,-8.9815,-9.0031,-9.008,-9.0229,-9.0287,-9.0362,-9.0425,-9.0603,-9.0706,-9.0737,-9.0804,-9.0929,-9.104,-9.1051,-9.1097,-9.1152,-9.1155,-9.0898,-9.0863,-9.083,-9.0789,-9.1162,-9.1162,-9.1419,-9.1422,-9.1423]}]]